CAPE
91 125 394 577 566 598 613 636 627 646 640 633 653 697 747 676 540 415 322 261 215 157 109 55 25 3 0 0 0 6 0 71
214 321 303 313 244 386 507 480 445 407 321 267 319 316 360 515 383 171 99 51 11 0 0 0 0 0 0 0 0 0 0 2
528 290 436 687 328 290 409 558 479 417 323 199 78 435 277 417 58 80 18 0 0 0 0 0 0 0 0 0 0 0 0 0
815 739 556 167 3 198 686 669 612 688 751 758 720 579 518 169 127 32 40 3 2 0 0 0 0 0 0 0 0 0 0 0
963 1566 1021 853 602 59 472 486 665 1132 1351 608 934 478 959 576 354 14 2 14 13 0 0 0 9 0 0 0 0 0 0 0
1411 1733 1603 852 696 410 307 389 543 652 538 677 522 430 527 163 71 0 0 0 0 4 0 22 0 8 0 0 0 0 0 0
853 1889 2337 1551 802 856 636 520 813 486 518 476 394 273 314 254 65 24 1 0 0 4 0 0 0 0 0 0 0 0 0 0
1121 1561 2492 1817 790 550 539 710 753 631 252 92 173 213 278 167 74 60 18 0 0 0 0 0 0 0 0 0 0 0 0 0
1211 656 2192 1913 730 406 221 223 36 64 107 36 52 58 68 76 69 60 47 83 64 28 18 1 0 0 0 3 0 0 0 0
171 958 2194 1968 1073 410 126 87 62 42 27 63 28 15 85 84 95 90 106 112 70 80 55 26 4 2 0 0 0 0 0 0
518 1242 1797 1645 909 268 168 93 53 59 115 47 54 3 67 30 29 47 85 39 51 66 41 43 28 2 0 0 1 6 0 0
595 1139 978 618 362 133 61 39 24 36 21 15 5 0 11 3 0 5 32 1 0 1 9 4 17 23 18 7 0 0 0 0
289 68 64 15 44 0 1 1 0 1 9 26 0 3 0 0 0 0 0 0 0 0 0 0 0 0 7 0 0 23 39 14
0 0 0 0 0 0 0 0 4 7 15 0 0 1 0 0 0 0 0 0 0 0 0 0 0 0 38 7 2 0 0 2
0 0 0 0 0 0 0 0 9 1 0 0 5 0 0 0 0 4 0 0 0 0 0 0 0 0 4 49 17 3 0 0
0 0 0 0 0 0 0 0 0 0 0 0 0 0 0 0 0 0 0 0 0 0 8 1 0 0 0 0 0 0 11 0
0 0 0 0 0 0 0 0 0 0 0 0 0 0 0 0 0 0 0 0 4 2 0 0 0 0 0 0 0 0 0 0
0 0 0 0 0 0 0 0 0 0 2 1 0 0 0 0 0 0 0 8 4 0 0 0 1 0 1 0 0 1 0 0
3 0 0 2 5 15 16 13 17 7 1 0 0 0 0 0 0 8 4 9 1 0 0 1 3 0 0 0 0 0 0 1
14 3 0 0 3 0 0 4 0 0 0 0 0 0 0 0 26 16 31 26 12 6 14 22 28 17 7 10 10 14 3 4
CIN
-247 -292 -239 -189 -164 -130 -118 -103 -94 -77 -72 -72 -75 -67 -56 -54 -59 -72 -80 -94 -105 -127 -169 -226 -283 -172 -0 -0 -0 -288 -0 -218
-122 -143 -183 -208 -248 -213 -164 -142 -137 -135 -157 -150 -120 -112 -99 -64 -73 -112 -157 -198 -223 -0 -0 -0 -0 -0 -0 -0 -0 -0 -0 -64
-18 -56 -31 -52 -158 -191 -176 -133 -139 -146 -160 -177 -256 -74 -100 -66 -177 -158 -218 -0 -0 -0 -0 -0 -0 -0 -0 -0 -0 -0 -0 -0
-18 -31 -41 -62 -6 -190 -112 -62 -100 -85 -48 -40 -35 -23 -20 -23 -94 -176 -168 -103 -70 -0 -0 -0 -0 -0 -0 -0 -0 -0 -0 -0
-23 -25 -27 -12 -39 -100 -39 -30 -43 -41 -20 -43 -19 -27 -25 -32 -81 -172 -35 -165 -112 -0 -0 -0 -26 -0 -0 -0 -0 -0 -0 -0
-27 -29 -21 -25 -50 -45 -57 -44 -49 -21 -48 -39 -61 -43 -34 -48 -46 -0 -0 -0 -0 -14 -0 -22 -0 -19 -0 -0 -0 -0 -0 -0
-19 -27 -12 -23 -43 -51 -61 -59 -47 -62 -37 -78 -71 -64 -63 -46 -57 -62 -4 -0 -0 -13 -0 -0 -0 -0 -0 -0 -0 -0 -0 -0
-30 -32 -24 -23 -34 -66 -60 -63 -50 -60 -56 -117 -72 -59 -65 -65 -77 -62 -48 -0 -0 -0 -0 -0 -0 -0 -0 -0 -0 -0 -0 -0
-42 -130 -26 -30 -31 -53 -83 -69 -134 -80 -47 -89 -79 -82 -82 -80 -82 -78 -62 -41 -48 -44 -35 -2 -0 -0 -0 -15 -0 -0 -0 -0
-190 -9 -27 -34 -24 -51 -85 -86 -118 -93 -82 -32 -63 -100 -99 -101 -99 -76 -49 -48 -50 -40 -49 -55 -65 -67 -0 -0 -0 -0 -0 -0
-26 -14 -20 -13 -17 -55 -73 -94 -125 -86 -63 -46 -70 -55 -96 -129 -140 -107 -64 -77 -81 -64 -57 -19 -17 -11 -0 -0 -8 -37 -22 -0
-31 -24 -52 -116 -71 -109 -119 -107 -119 -95 -75 -68 -97 -51 -54 -167 -0 -135 -85 -27 -0 -30 -85 -13 -32 -30 -24 -22 -0 -0 -0 -0
-96 -203 -164 -193 -136 -0 -121 -23 -21 -36 -78 -76 -0 -84 -0 -0 -0 -0 -0 -0 -0 -0 -0 -0 -0 -0 -17 -0 -0 -24 -33 -42
-0 -0 -0 -0 -0 -0 -0 -0 -129 -109 -78 -0 -15 -17 -0 -0 -0 -0 -0 -0 -0 -0 -0 -0 -0 -0 -6 -9 -1 -0 -0 -4
-0 -0 -0 -0 -0 -0 -0 -0 -37 -35 -0 -0 -43 -0 -0 -0 -4 -12 -0 -0 -0 -0 -0 -0 -0 -0 -16 -8 -4 -3 -0 -0
-0 -0 -0 -0 -0 -0 -0 -0 -0 -0 -0 -0 -0 -0 -0 -0 -0 -0 -0 -0 -0 -0 -5 -6 -0 -0 -0 -0 -0 -0 -2 -0
-0 -0 -0 -1 -0 -0 -0 -0 -0 -0 -0 -0 -0 -0 -0 -0 -0 -0 -0 -0 -5 -23 -0 -0 -0 -0 -0 -0 -0 -0 -0 -0
-0 -0 -0 -0 -5 -0 -0 -0 -3 -0 -4 -12 -0 -0 -0 -0 -0 -0 -0 -17 -51 -0 -0 -0 -4 -0 -1 -0 -0 -0 -0 -0
-6 -0 -0 -11 -23 -16 -13 -19 -21 -20 -13 -0 -0 -0 -0 -0 -0 -6 -35 -57 -61 -0 -0 -48 -21 -0 -0 -0 -0 -0 -0 -0
-12 -8 -0 -0 -17 -0 -5 -64 -0 -0 -0 -0 -0 -0 -0 -0 -11 -22 -31 -24 -33 -38 -11 -3 -3 -7 -2 -8 -6 -6 -7 -6
Wind_Speed
10 9 10 12 11 10 9 9 9 8 8 6 6 7 8 9 9 9 7 7 6 5 4 3 3 4 5 6 9 12 8 8
13 12 11 10 8 11 10 9 9 9 8 7 6 6 8 9 9 8 5 4 3 2 2 4 6 7 8 8 10 11 8 9
5 9 7 10 11 9 10 10 10 9 8 10 8 5 8 9 7 9 7 6 6 5 6 8 9 10 11 12 11 4 7 4
6 7 7 1 5 10 10 9 8 8 7 2 4 4 4 1 6 8 8 9 9 8 10 11 8 5 4 10 5 5 3 5
10 7 5 1 4 2 2 2 3 4 6 4 4 1 2 0 4 4 5 9 4 7 7 6 5 3 5 4 5 6 4 4
13 9 5 2 4 2 3 3 3 2 3 5 3 2 4 2 2 4 3 1 3 4 2 4 4 6 6 4 5 5 4 3
10 11 7 5 2 2 3 2 2 3 3 5 3 2 3 2 2 2 3 3 3 2 3 4 5 5 5 6 5 6 6 4
10 13 12 8 3 5 1 3 3 4 4 5 3 2 2 2 2 3 4 3 3 3 4 4 5 5 6 7 6 6 5 6
9 5 9 9 4 4 2 2 2 1 4 5 3 1 4 4 3 4 4 3 4 4 5 4 5 5 7 6 6 7 6 7
10 7 10 8 4 5 1 3 2 1 1 2 5 4 1 2 3 4 4 4 4 4 4 5 5 5 5 5 5 6 8 8
8 6 8 7 6 1 4 3 1 4 3 2 6 4 4 3 3 5 5 4 4 5 5 4 4 5 6 6 6 5 7 6
6 9 10 8 4 3 3 3 3 3 2 4 6 3 5 5 4 6 5 4 5 4 5 4 5 6 9 10 8 8 6 5
12 11 5 3 3 3 4 4 4 4 4 7 6 4 5 4 4 5 6 5 6 7 5 6 6 5 6 7 7 8 9 10
8 9 8 7 5 3 1 1 2 2 3 3 2 3 3 5 4 5 5 5 7 7 6 6 5 4 6 7 9 9 7 9
8 7 7 6 7 4 4 4 3 3 4 4 4 6 6 6 7 5 5 4 4 6 7 8 7 5 7 5 8 8 7 6
6 6 6 6 6 6 6 5 5 6 5 6 7 7 7 7 7 6 6 3 5 6 6 6 8 8 7 9 7 6 5 8
5 5 3 6 2 4 3 5 5 5 4 6 6 5 7 8 8 7 6 5 5 7 8 9 7 6 5 4 5 6 3 3
3 5 6 6 4 3 2 3 4 4 5 5 6 6 7 7 9 6 6 5 5 4 4 6 4 3 4 4 3 3 3 2
1 5 6 6 7 4 3 4 6 6 6 6 9 8 7 8 8 6 5 4 5 4 4 3 3 2 3 3 2 3 2 2
6 6 7 7 6 9 7 6 4 5 7 6 5 5 6 8 6 6 6 5 5 3 0 2 4 4 6 5 4 4 4 4
Wind_Direction
139 130 123 115 117 109 100 99 100 102 100 104 120 127 119 106 91 80 69 63 57 52 35 13 350 326 320 312 308 303 307 296
143 145 156 146 147 131 136 141 142 146 143 167 159 170 154 124 121 98 85 61 41 9 320 300 280 273 267 268 268 287 276 268
118 98 84 148 141 151 160 169 168 165 176 199 170 215 164 148 142 156 159 187 201 220 239 245 255 263 259 260 267 262 275 322
108 113 103 179 118 158 180 181 183 189 180 216 152 88 96 306 162 178 187 213 214 222 238 252 257 259 213 250 264 270 332 288
133 110 132 351 96 342 131 143 129 153 103 74 83 339 132 104 144 192 210 221 231 212 227 242 241 355 315 313 318 332 297 277
139 142 143 102 14 40 10 41 63 67 106 91 67 16 54 29 41 350 318 33 283 256 272 269 268 227 228 256 277 282 292 321
153 138 151 146 140 43 62 334 103 49 91 98 66 3 71 20 341 306 317 289 282 325 338 315 307 286 261 223 233 260 261 268
157 160 156 151 207 107 44 171 131 197 107 103 125 6 78 276 350 300 306 321 345 315 269 258 255 252 261 257 230 231 265 287
153 81 141 124 160 150 191 83 78 323 123 142 135 256 3 346 323 309 285 304 321 301 289 279 275 266 250 243 227 221 214 236
277 124 115 121 209 138 225 104 97 297 168 159 163 167 170 319 310 314 304 316 288 290 296 282 280 276 272 271 251 228 210 209
30 81 94 136 166 38 117 71 226 262 34 342 62 31 18 16 329 307 310 302 289 285 289 278 284 292 287 275 265 248 227 223
31 51 51 33 20 101 257 193 225 229 227 65 67 356 37 8 322 291 293 289 284 287 298 304 288 280 282 285 277 275 271 243
33 72 48 352 28 14 12 11 10 358 19 57 34 20 13 324 299 312 325 308 310 312 300 305 294 288 288 281 281 266 250 244
62 68 42 31 28 20 65 303 305 313 288 79 305 53 337 318 338 306 303 321 318 303 298 299 292 293 286 292 300 292 270 270
66 70 67 53 0 24 11 339 336 342 6 336 9 20 342 313 293 299 320 312 316 317 307 304 310 317 310 295 310 289 318 305
72 46 52 59 50 6 2 331 347 354 359 350 353 354 326 348 334 331 326 338 312 292 342 16 11 354 348 12 6 342 320 308
26 347 114 125 70 23 2 12 345 333 332 335 339 356 349 346 338 340 338 330 312 50 34 30 24 2 352 334 327 324 81 339
17 330 6 18 55 26 355 316 303 339 330 340 6 349 347 337 332 335 313 336 32 44 69 56 26 334 331 319 334 320 327 345
49 11 333 342 8 359 11 15 8 5 359 8 360 341 334 329 320 320 28 44 64 50 43 27 305 299 273 283 279 274 248 212
15 9 351 343 2 38 27 16 21 23 21 6 340 332 325 306 359 19 20 40 32 30 200 274 283 262 258 250 251 240 208 213